Time,TemperatureF,DewpointF,PressureIn,WindDirection,WindDirectionDegrees,WindSpeedMPH,WindSpeedGustMPH,Humidity,HourlyPrecipIn,Conditions,Clouds,dailyrainin,SoftwareType,DateUTC
2013-05-09 00:05:00,69.7,42.9,29.96,WSW,252,8.0,10.0,38,0.00,,,0.00,Wunderground v.1.15,2013-05-09 07:05:00,
2013-05-09 00:10:00,69.5,42.8,29.96,WSW,243,7.0,8.0,38,0.00,,,0.00,Wunderground v.1.15,2013-05-09 07:10:00,
2013-05-09 00:16:00,69.2,43.2,29.96,SW,229,4.0,8.0,39,0.00,,,0.00,Wunderground v.1.15,2013-05-09 07:16:00,
2013-05-09 00:22:00,69.2,43.2,29.96,SW,236,3.0,6.0,39,0.00,,,0.00,Wunderground v.1.15,2013-05-09 07:22:00,
2013-05-09 00:27:00,69.4,42.7,29.96,WSW,239,4.0,6.0,38,0.00,,,0.00,Wunderground v.1.15,2013-05-09 07:27:00,
2013-05-09 00:33:00,69.5,42.1,29.96,WSW,237,8.0,8.0,37,0.00,,,0.00,Wunderground v.1.15,2013-05-09 07:33:00,
2013-05-09 00:39:00,69.4,42.7,29.96,WSW,243,9.0,9.0,38,0.00,,,0.00,Wunderground v.1.15,2013-05-09 07:39:00,
2013-05-09 00:45:00,68.9,42.9,29.96,SW,231,7.0,7.0,39,0.00,,,0.00,Wunderground v.1.15,2013-05-09 07:45:00,
2013-05-09 00:51:00,68.4,42.5,29.96,West,263,6.0,6.0,39,0.00,,,0.00,Wunderground v.1.15,2013-05-09 07:51:00,
2013-05-09 00:56:00,68.4,42.5,29.96,WSW,247,7.0,8.0,39,0.00,,,0.00,Wunderground v.1.15,2013-05-09 07:56:00,
2013-05-09 01:02:00,68.4,42.5,29.97,WSW,242,7.0,7.0,39,0.00,,,0.00,Wunderground v.1.15,2013-05-09 08:02:00,
2013-05-09 01:07:00,68.4,42.5,29.97,SW,227,6.0,7.0,39,0.00,,,0.00,Wunderground v.1.15,2013-05-09 08:07:00,
2013-05-09 01:13:00,68.2,42.9,29.97,SW,234,6.0,6.0,40,0.00,,,0.00,Wunderground v.1.15,2013-05-09 08:13:00,
2013-05-09 01:18:00,68.1,42.9,29.97,SW,230,6.0,6.0,40,0.00,,,0.00,Wunderground v.1.15,2013-05-09 08:18:00,
2013-05-09 01:24:00,68.1,42.9,29.97,SW,226,6.0,6.0,40,0.00,,,0.00,Wunderground v.1.15,2013-05-09 08:24:00,
2013-05-09 01:29:00,68.2,42.3,29.97,SW,222,4.0,6.0,39,0.00,,,0.00,Wunderground v.1.15,2013-05-09 08:29:00,
2013-05-09 01:35:00,68.0,42.1,29.97,SW,222,5.0,5.0,39,0.00,,,0.00,Wunderground v.1.15,2013-05-09 08:35:00,
2013-05-09 01:41:00,67.6,42.4,29.97,SW,222,4.0,4.0,40,0.00,,,0.00,Wunderground v.1.15,2013-05-09 08:41:00,
2013-05-09 01:47:00,66.8,43.0,29.97,SW,215,4.0,6.0,42,0.00,,,0.00,Wunderground v.1.15,2013-05-09 08:47:00,
2013-05-09 01:53:00,66.4,43.8,29.97,SW,215,4.0,5.0,44,0.00,,,0.00,Wunderground v.1.15,2013-05-09 08:53:00,
2013-05-09 01:59:00,66.1,44.1,29.97,SSW,207,4.0,5.0,45,0.00,,,0.00,Wunderground v.1.15,2013-05-09 08:59:00,
2013-05-09 02:04:00,66.0,44.0,29.97,SSW,207,3.0,6.0,45,0.00,,,0.00,Wunderground v.1.15,2013-05-09 09:04:00,
2013-05-09 02:09:00,66.0,44.0,29.97,SSW,206,5.0,7.0,45,0.00,,,0.00,Wunderground v.1.15,2013-05-09 09:09:00,
2013-05-09 02:14:00,65.8,45.0,29.97,SSW,206,3.0,5.0,47,0.00,,,0.00,Wunderground v.1.15,2013-05-09 09:14:00,
2013-05-09 02:19:00,64.9,44.7,29.97,SSW,206,4.0,5.0,48,0.00,,,0.00,Wunderground v.1.15,2013-05-09 09:19:00,
2013-05-09 02:24:00,64.6,45.0,29.97,SSW,206,4.0,5.0,49,0.00,,,0.00,Wunderground v.1.15,2013-05-09 09:24:00,
2013-05-09 02:29:00,64.6,45.0,29.97,SSW,206,5.0,5.0,49,0.00,,,0.00,Wunderground v.1.15,2013-05-09 09:29:00,
2013-05-09 02:34:00,64.4,45.3,29.98,SSW,202,3.0,6.0,50,0.00,,,0.00,Wunderground v.1.15,2013-05-09 09:34:00,
2013-05-09 02:39:00,64.1,46.1,29.98,SSW,192,2.0,6.0,52,0.00,,,0.00,Wunderground v.1.15,2013-05-09 09:39:00,
2013-05-09 02:44:00,63.8,45.8,29.98,SSW,192,2.0,6.0,52,0.00,,,0.00,Wunderground v.1.15,2013-05-09 09:44:00,
2013-05-09 02:49:00,63.9,44.9,29.98,SSW,192,5.0,6.0,50,0.00,,,0.00,Wunderground v.1.15,2013-05-09 09:49:00,
2013-05-09 02:54:00,64.7,44.5,29.98,SSW,192,4.0,5.0,48,0.00,,,0.00,Wunderground v.1.15,2013-05-09 09:54:00,
2013-05-09 02:59:00,64.9,44.7,29.98,SSW,192,4.0,5.0,48,0.00,,,0.00,Wunderground v.1.15,2013-05-09 09:59:00,
2013-05-09 03:04:00,64.5,44.4,29.98,SSW,192,4.0,5.0,48,0.00,,,0.00,Wunderground v.1.15,2013-05-09 10:04:00,
2013-05-09 03:09:00,64.6,43.9,29.98,SSW,192,4.0,5.0,47,0.00,,,0.00,Wunderground v.1.15,2013-05-09 10:09:00,
2013-05-09 03:14:00,64.3,44.2,29.98,SSW,192,4.0,6.0,48,0.00,,,0.00,Wunderground v.1.15,2013-05-09 10:14:00,
2013-05-09 03:19:00,64.0,43.9,29.98,SSW,192,2.0,6.0,48,0.00,,,0.00,Wunderground v.1.15,2013-05-09 10:19:00,
2013-05-09 03:24:00,63.4,44.9,29.98,SSW,192,2.0,4.0,51,0.00,,,0.00,Wunderground v.1.15,2013-05-09 10:24:00,
2013-05-09 03:29:00,62.6,46.7,29.98,SSE,166,4.0,5.0,56,0.00,,,0.00,Wunderground v.1.15,2013-05-09 10:29:00,
2013-05-09 03:34:00,62.0,47.0,29.98,SSE,165,0.0,5.0,58,0.00,,,0.00,Wunderground v.1.15,2013-05-09 10:34:00,
2013-05-09 03:39:00,61.4,46.0,29.99,SSE,159,2.0,5.0,57,0.00,,,0.00,Wunderground v.1.15,2013-05-09 10:39:00,
2013-05-09 03:44:00,61.2,46.3,29.99,SSE,159,0.0,3.0,58,0.00,,,0.00,Wunderground v.1.15,2013-05-09 10:44:00,
2013-05-09 03:49:00,61.2,46.3,29.98,SSE,159,0.0,3.0,58,0.00,,,0.00,Wunderground v.1.15,2013-05-09 10:49:00,
2013-05-09 03:54:00,61.3,46.8,29.99,SSE,159,1.0,1.0,59,0.00,,,0.00,Wunderground v.1.15,2013-05-09 10:54:00,
2013-05-09 03:59:00,61.4,47.4,29.99,SSE,159,3.0,3.0,60,0.00,,,0.00,Wunderground v.1.15,2013-05-09 10:59:00,
2013-05-09 04:04:00,61.4,47.4,29.99,SSE,159,2.0,4.0,60,0.00,,,0.00,Wunderground v.1.15,2013-05-09 11:04:00,
2013-05-09 04:09:00,61.2,47.6,29.99,SSE,159,2.0,4.0,61,0.00,,,0.00,Wunderground v.1.15,2013-05-09 11:09:00,
2013-05-09 04:14:00,60.9,47.8,29.99,SSE,159,0.0,3.0,62,0.00,,,0.00,Wunderground v.1.15,2013-05-09 11:14:00,
2013-05-09 04:19:00,60.6,47.5,29.99,SSE,159,0.0,1.0,62,0.00,,,0.00,Wunderground v.1.15,2013-05-09 11:19:00,
2013-05-09 04:24:00,60.3,47.6,29.99,SSE,159,2.0,3.0,63,0.00,,,0.00,Wunderground v.1.15,2013-05-09 11:24:00,
2013-05-09 04:29:00,60.4,47.7,29.99,SSE,159,0.0,1.0,63,0.00,,,0.00,Wunderground v.1.15,2013-05-09 11:29:00,
2013-05-09 04:34:00,60.3,47.6,29.99,SSE,159,0.0,1.0,63,0.00,,,0.00,Wunderground v.1.15,2013-05-09 11:34:00,
2013-05-09 04:39:00,60.2,47.6,29.99,SSE,159,0.0,0.0,63,0.00,,,0.00,Wunderground v.1.15,2013-05-09 11:39:00,
2013-05-09 04:45:00,60.1,47.5,29.99,SSE,159,0.0,0.0,63,0.00,,,0.00,Wunderground v.1.15,2013-05-09 11:45:00,
2013-05-09 04:50:00,60.1,47.5,29.99,SSE,159,0.0,0.0,63,0.00,,,0.00,Wunderground v.1.15,2013-05-09 11:50:00,
2013-05-09 04:55:00,60.0,47.8,30.00,SSE,159,0.0,0.0,64,0.00,,,0.00,Wunderground v.1.15,2013-05-09 11:55:00,
2013-05-09 05:00:00,60.0,47.8,30.00,SSE,159,0.0,0.0,64,0.00,,,0.00,Wunderground v.1.15,2013-05-09 12:00:00,
2013-05-09 05:05:00,59.8,47.6,30.00,SSE,159,0.0,1.0,64,0.00,,,0.00,Wunderground v.1.15,2013-05-09 12:05:00,
2013-05-09 05:10:00,60.1,47.9,30.00,SSE,159,2.0,2.0,64,0.00,,,0.00,Wunderground v.1.15,2013-05-09 12:10:00,
2013-05-09 05:15:00,60.5,47.0,30.00,SSE,159,1.0,2.0,61,0.00,,,0.00,Wunderground v.1.15,2013-05-09 12:15:00,
2013-05-09 05:20:00,60.7,46.7,30.00,SSE,159,0.0,1.0,60,0.00,,,0.00,Wunderground v.1.15,2013-05-09 12:20:00,
2013-05-09 05:25:00,60.6,47.1,30.00,SSE,159,0.0,1.0,61,0.00,,,0.00,Wunderground v.1.15,2013-05-09 12:25:00,
2013-05-09 05:30:00,60.8,47.3,30.00,SSE,159,0.0,0.0,61,0.00,,,0.00,Wunderground v.1.15,2013-05-09 12:30:00,
2013-05-09 05:35:00,60.7,47.6,30.00,SSE,159,0.0,0.0,62,0.00,,,0.00,Wunderground v.1.15,2013-05-09 12:35:00,
2013-05-09 05:40:00,60.4,47.3,30.00,SSE,159,0.0,0.0,62,0.00,,,0.00,Wunderground v.1.15,2013-05-09 12:40:00,
2013-05-09 05:45:00,60.1,47.0,30.01,SSE,159,0.0,0.0,62,0.00,,,0.00,Wunderground v.1.15,2013-05-09 12:45:00,
2013-05-09 05:50:00,60.0,46.5,30.01,SSE,159,0.0,0.0,61,0.00,,,0.00,Wunderground v.1.15,2013-05-09 12:50:00,
2013-05-09 05:55:00,59.9,46.8,30.01,SSE,159,0.0,1.0,62,0.00,,,0.00,Wunderground v.1.15,2013-05-09 12:55:00,
2013-05-09 06:00:00,59.8,47.2,30.01,SSE,159,1.0,1.0,63,0.00,,,0.00,Wunderground v.1.15,2013-05-09 13:00:00,
2013-05-09 06:05:00,59.8,47.2,30.01,SSE,159,0.0,1.0,63,0.00,,,0.00,Wunderground v.1.15,2013-05-09 13:05:00,
2013-05-09 06:10:00,59.4,47.6,30.02,SSE,159,3.0,4.0,65,0.00,,,0.00,Wunderground v.1.15,2013-05-09 13:10:00,
2013-05-09 06:15:00,58.7,47.4,30.02,SSE,159,0.0,4.0,66,0.00,,,0.00,Wunderground v.1.15,2013-05-09 13:15:00,
2013-05-09 06:20:00,58.1,47.6,30.02,SW,229,0.0,2.0,68,0.00,,,0.00,Wunderground v.1.15,2013-05-09 13:20:00,
2013-05-09 06:25:00,57.7,47.6,30.03,SW,229,0.0,2.0,69,0.00,,,0.00,Wunderground v.1.15,2013-05-09 13:25:00,
2013-05-09 06:30:00,57.3,47.6,30.03,SW,229,0.0,1.0,70,0.00,,,0.00,Wunderground v.1.15,2013-05-09 13:30:00,
2013-05-09 06:35:00,56.9,47.6,30.03,SW,229,1.0,2.0,71,0.00,,,0.00,Wunderground v.1.15,2013-05-09 13:35:00,
2013-05-09 06:40:00,57.0,47.7,30.03,SW,229,0.0,1.0,71,0.00,,,0.00,Wunderground v.1.15,2013-05-09 13:40:00,
2013-05-09 06:45:00,57.7,48.7,30.03,SW,229,0.0,1.0,72,0.00,,,0.00,Wunderground v.1.15,2013-05-09 13:45:00,
2013-05-09 06:50:00,58.5,48.7,30.03,SW,229,0.0,0.0,70,0.00,,,0.00,Wunderground v.1.15,2013-05-09 13:50:00,
2013-05-09 06:55:00,59.0,48.4,30.03,SW,229,0.0,0.0,68,0.00,,,0.00,Wunderground v.1.15,2013-05-09 13:55:00,
2013-05-09 07:00:00,60.0,49.4,30.03,SW,229,0.0,0.0,68,0.00,,,0.00,Wunderground v.1.15,2013-05-09 14:00:00,
2013-05-09 07:05:00,60.9,49.9,30.04,SW,228,2.0,2.0,67,0.00,,,0.00,Wunderground v.1.15,2013-05-09 14:05:00,
2013-05-09 07:11:00,60.5,49.9,30.04,SW,228,1.0,1.0,68,0.00,,,0.00,Wunderground v.1.15,2013-05-09 14:11:00,
2013-05-09 07:16:00,60.1,50.3,30.04,SW,228,2.0,3.0,70,0.00,,,0.00,Wunderground v.1.15,2013-05-09 14:16:00,
2013-05-09 07:21:00,59.9,50.5,30.04,SW,228,0.0,2.0,71,0.00,,,0.00,Wunderground v.1.15,2013-05-09 14:21:00,
2013-05-09 07:26:00,60.2,51.1,30.04,South,191,3.0,3.0,72,0.00,,,0.00,Wunderground v.1.15,2013-05-09 14:26:00,
2013-05-09 07:31:00,60.4,50.6,30.04,South,191,0.0,2.0,70,0.00,,,0.00,Wunderground v.1.15,2013-05-09 14:31:00,
2013-05-09 07:36:00,60.9,51.0,30.04,South,191,0.0,2.0,70,0.00,,,0.00,Wunderground v.1.15,2013-05-09 14:36:00,
2013-05-09 07:41:00,61.5,50.4,30.05,South,191,2.0,2.0,67,0.00,,,0.00,Wunderground v.1.15,2013-05-09 14:41:00,
2013-05-09 07:46:00,61.8,50.7,30.04,SE,136,1.0,4.0,67,0.00,,,0.00,Wunderground v.1.15,2013-05-09 14:46:00,
2013-05-09 07:51:00,62.3,50.4,30.05,SE,136,2.0,2.0,65,0.00,,,0.00,Wunderground v.1.15,2013-05-09 14:51:00,
2013-05-09 07:56:00,62.5,50.6,30.05,SE,134,2.0,4.0,65,0.00,,,0.00,Wunderground v.1.15,2013-05-09 14:56:00,
2013-05-09 08:01:00,62.7,51.2,30.05,SE,134,0.0,1.0,66,0.00,,,0.00,Wunderground v.1.15,2013-05-09 15:01:00,
2013-05-09 08:06:00,63.2,50.8,30.05,SE,134,0.0,2.0,64,0.00,,,0.00,Wunderground v.1.15,2013-05-09 15:06:00,
2013-05-09 08:11:00,63.4,50.6,30.05,SE,134,1.0,3.0,63,0.00,,,0.00,Wunderground v.1.15,2013-05-09 15:11:00,
2013-05-09 08:16:00,63.6,49.9,30.05,SE,146,2.0,3.0,61,0.00,,,0.00,Wunderground v.1.15,2013-05-09 15:16:00,
2013-05-09 08:21:00,63.8,50.5,30.05,SE,146,2.0,2.0,62,0.00,,,0.00,Wunderground v.1.15,2013-05-09 15:21:00,
2013-05-09 08:26:00,64.2,50.0,30.05,SE,146,2.0,5.0,60,0.00,,,0.00,Wunderground v.1.15,2013-05-09 15:26:00,
2013-05-09 08:31:00,64.6,49.5,30.05,SSE,150,0.0,3.0,58,0.00,,,0.00,Wunderground v.1.15,2013-05-09 15:31:00,
2013-05-09 08:36:00,64.8,49.2,30.05,SSE,166,4.0,6.0,57,0.00,,,0.00,Wunderground v.1.15,2013-05-09 15:36:00,
2013-05-09 08:42:00,64.8,48.7,30.05,SSE,159,4.0,5.0,56,0.00,,,0.00,Wunderground v.1.15,2013-05-09 15:42:00,
2013-05-09 08:47:00,64.9,48.8,30.05,SSE,163,0.0,6.0,56,0.00,,,0.00,Wunderground v.1.15,2013-05-09 15:47:00,
2013-05-09 08:52:00,65.2,49.6,30.06,ESE,108,3.0,4.0,57,0.00,,,0.00,Wunderground v.1.15,2013-05-09 15:52:00,
2013-05-09 08:57:00,65.6,50.0,30.06,ESE,108,0.0,4.0,57,0.00,,,0.00,Wunderground v.1.15,2013-05-09 15:57:00,
2013-05-09 09:02:00,65.9,51.6,30.06,ESE,106,0.0,1.0,60,0.00,,,0.00,Wunderground v.1.15,2013-05-09 16:02:00,
2013-05-09 09:07:00,66.2,49.6,30.05,ESE,103,3.0,5.0,55,0.00,,,0.00,Wunderground v.1.15,2013-05-09 16:07:00,
2013-05-09 09:12:00,66.0,49.4,30.06,SSE,153,0.0,4.0,55,0.00,,,0.00,Wunderground v.1.15,2013-05-09 16:12:00,
2013-05-09 09:17:00,66.2,49.1,30.05,ESE,118,1.0,7.0,54,0.00,,,0.00,Wunderground v.1.15,2013-05-09 16:17:00,
2013-05-09 09:22:00,66.8,49.6,30.05,SE,142,2.0,6.0,54,0.00,,,0.00,Wunderground v.1.15,2013-05-09 16:22:00,
2013-05-09 09:27:00,66.9,49.2,30.05,SE,136,0.0,6.0,53,0.00,,,0.00,Wunderground v.1.15,2013-05-09 16:27:00,
2013-05-09 09:32:00,67.1,49.4,30.05,SSE,167,3.0,7.0,53,0.00,,,0.00,Wunderground v.1.15,2013-05-09 16:32:00,
2013-05-09 09:37:00,67.1,49.4,30.05,SE,142,2.0,9.0,53,0.00,,,0.00,Wunderground v.1.15,2013-05-09 16:37:00,
2013-05-09 09:43:00,67.5,48.7,30.05,East,98,1.0,5.0,51,0.00,,,0.00,Wunderground v.1.15,2013-05-09 16:43:00,
2013-05-09 09:48:00,67.6,49.9,30.05,East,96,5.0,5.0,53,0.00,,,0.00,Wunderground v.1.15,2013-05-09 16:48:00,
2013-05-09 09:54:00,67.8,49.5,30.05,ESE,117,1.0,4.0,52,0.00,,,0.00,Wunderground v.1.15,2013-05-09 16:54:00,
2013-05-09 09:59:00,68.6,50.3,30.05,SE,133,3.0,5.0,52,0.00,,,0.00,Wunderground v.1.15,2013-05-09 16:59:00,
2013-05-09 10:04:00,68.8,49.9,30.05,SE,133,0.0,4.0,51,0.00,,,0.00,Wunderground v.1.15,2013-05-09 17:04:00,
2013-05-09 10:09:00,68.9,50.0,30.05,ESE,120,4.0,6.0,51,0.00,,,0.00,Wunderground v.1.15,2013-05-09 17:09:00,
2013-05-09 10:14:00,69.1,49.7,30.05,ESE,119,4.0,7.0,50,0.00,,,0.00,Wunderground v.1.15,2013-05-09 17:14:00,
2013-05-09 10:19:00,69.3,48.8,30.05,SE,127,2.0,7.0,48,0.00,,,0.00,Wunderground v.1.15,2013-05-09 17:19:00,
2013-05-09 10:24:00,69.7,50.2,30.05,East,83,2.0,2.0,50,0.00,,,0.00,Wunderground v.1.15,2013-05-09 17:24:00,
2013-05-09 10:29:00,69.9,49.9,30.05,ESE,103,3.0,5.0,49,0.00,,,0.00,Wunderground v.1.15,2013-05-09 17:29:00,
2013-05-09 10:34:00,70.3,50.2,30.06,ESE,106,1.0,4.0,49,0.00,,,0.00,Wunderground v.1.15,2013-05-09 17:34:00,
2013-05-09 10:39:00,70.8,51.2,30.05,ESE,106,1.0,4.0,50,0.00,,,0.00,Wunderground v.1.15,2013-05-09 17:39:00,
2013-05-09 10:44:00,71.5,50.2,30.05,East,91,1.0,3.0,47,0.00,,,0.00,Wunderground v.1.15,2013-05-09 17:44:00,
2013-05-09 10:49:00,71.4,50.7,30.06,ENE,74,2.0,6.0,48,0.00,,,0.00,Wunderground v.1.15,2013-05-09 17:49:00,
2013-05-09 10:54:00,71.3,49.4,30.05,SE,133,4.0,7.0,46,0.00,,,0.00,Wunderground v.1.15,2013-05-09 17:54:00,
2013-05-09 10:59:00,70.9,49.7,30.05,SSE,148,1.0,7.0,47,0.00,,,0.00,Wunderground v.1.15,2013-05-09 17:59:00,
2013-05-09 11:04:00,71.2,49.9,30.05,ESE,109,2.0,4.0,47,0.00,,,0.00,Wunderground v.1.15,2013-05-09 18:04:00,
2013-05-09 11:09:00,71.5,49.6,30.05,ESE,112,0.0,4.0,46,0.00,,,0.00,Wunderground v.1.15,2013-05-09 18:09:00,
2013-05-09 11:14:00,72.2,50.3,30.05,East,86,3.0,3.0,46,0.00,,,0.00,Wunderground v.1.15,2013-05-09 18:14:00,
2013-05-09 11:19:00,72.1,49.0,30.05,NE,36,2.0,5.0,44,0.00,,,0.00,Wunderground v.1.15,2013-05-09 18:19:00,
2013-05-09 11:24:00,72.1,50.2,30.05,North,10,0.0,3.0,46,0.00,,,0.00,Wunderground v.1.15,2013-05-09 18:24:00,
2013-05-09 11:29:00,73.1,49.9,30.05,North,9,0.0,3.0,44,0.00,,,0.00,Wunderground v.1.15,2013-05-09 18:29:00,
2013-05-09 11:34:00,73.6,50.3,30.05,SE,125,6.0,9.0,44,0.00,,,0.00,Wunderground v.1.15,2013-05-09 18:34:00,
2013-05-09 11:39:00,73.1,49.9,30.05,SE,136,1.0,9.0,44,0.00,,,0.00,Wunderground v.1.15,2013-05-09 18:39:00,
2013-05-09 11:45:00,73.3,50.1,30.05,East,79,0.0,4.0,44,0.00,,,0.00,Wunderground v.1.15,2013-05-09 18:45:00,
2013-05-09 11:50:00,73.9,50.6,30.05,ESE,122,4.0,5.0,44,0.00,,,0.00,Wunderground v.1.15,2013-05-09 18:50:00,
2013-05-09 11:55:00,73.9,50.0,30.05,ESE,122,1.0,5.0,43,0.00,,,0.00,Wunderground v.1.15,2013-05-09 18:55:00,
2013-05-09 12:00:00,74.0,49.4,30.05,SE,145,1.0,2.0,42,0.00,,,0.00,Wunderground v.1.15,2013-05-09 19:00:00,
2013-05-09 12:05:00,74.1,48.9,30.05,SSE,164,4.0,9.0,41,0.00,,,0.00,Wunderground v.1.15,2013-05-09 19:05:00,
2013-05-09 12:10:00,74.3,49.1,30.05,South,190,3.0,3.0,41,0.00,,,0.00,Wunderground v.1.15,2013-05-09 19:10:00,
2013-05-09 12:15:00,74.7,48.8,30.05,SSW,211,0.0,4.0,40,0.00,,,0.00,Wunderground v.1.15,2013-05-09 19:15:00,
2013-05-09 12:20:00,75.0,49.0,30.05,SW,214,1.0,3.0,40,0.00,,,0.00,Wunderground v.1.15,2013-05-09 19:20:00,
2013-05-09 12:25:00,75.8,47.7,30.05,SW,214,2.0,3.0,37,0.00,,,0.00,Wunderground v.1.15,2013-05-09 19:25:00,
2013-05-09 12:30:00,76.4,47.5,30.05,WSW,244,0.0,1.0,36,0.00,,,0.00,Wunderground v.1.15,2013-05-09 19:30:00,
2013-05-09 12:36:00,77.0,47.2,30.05,WSW,244,0.0,4.0,35,0.00,,,0.00,Wunderground v.1.15,2013-05-09 19:36:00,
2013-05-09 12:41:00,77.4,46.0,30.05,WSW,244,0.0,3.0,33,0.00,,,0.00,Wunderground v.1.15,2013-05-09 19:41:00,
2013-05-09 12:46:00,77.9,47.3,30.05,WNW,283,3.0,5.0,34,0.00,,,0.00,Wunderground v.1.15,2013-05-09 19:46:00,
2013-05-09 12:51:00,78.4,48.5,30.05,SSW,211,2.0,2.0,35,0.00,,,0.00,Wunderground v.1.15,2013-05-09 19:51:00,
2013-05-09 12:56:00,78.8,45.6,30.05,NNE,13,5.0,5.0,31,0.00,,,0.00,Wunderground v.1.15,2013-05-09 19:56:00,
2013-05-09 13:01:00,77.8,44.7,30.04,North,9,0.0,5.0,31,0.00,,,0.00,Wunderground v.1.15,2013-05-09 20:01:00,
2013-05-09 13:07:00,77.4,43.5,30.04,North,5,1.0,6.0,30,0.00,,,0.00,Wunderground v.1.15,2013-05-09 20:07:00,
2013-05-09 13:12:00,77.9,43.1,30.04,North,349,4.0,5.0,29,0.00,,,0.00,Wunderground v.1.15,2013-05-09 20:12:00,
2013-05-09 13:17:00,77.8,41.1,30.04,NE,52,2.0,6.0,27,0.00,,,0.00,Wunderground v.1.15,2013-05-09 20:17:00,
2013-05-09 13:22:00,77.6,41.9,30.04,NE,53,4.0,8.0,28,0.00,,,0.00,Wunderground v.1.15,2013-05-09 20:22:00,
2013-05-09 13:27:00,77.5,40.9,30.04,NE,38,2.0,8.0,27,0.00,,,0.00,Wunderground v.1.15,2013-05-09 20:27:00,
2013-05-09 13:32:00,78.2,42.4,30.04,NNW,342,3.0,5.0,28,0.00,,,0.00,Wunderground v.1.15,2013-05-09 20:32:00,
2013-05-09 13:37:00,78.4,40.7,30.04,North,9,0.0,9.0,26,0.00,,,0.00,Wunderground v.1.15,2013-05-09 20:37:00,
2013-05-09 13:42:00,78.9,40.1,30.04,NE,36,6.0,9.0,25,0.00,,,0.00,Wunderground v.1.15,2013-05-09 20:42:00,
2013-05-09 13:47:00,78.7,41.9,30.04,North,5,2.0,9.0,27,0.00,,,0.00,Wunderground v.1.15,2013-05-09 20:47:00,
2013-05-09 13:52:00,78.9,42.1,30.04,NNW,346,1.0,5.0,27,0.00,,,0.00,Wunderground v.1.15,2013-05-09 20:52:00,
2013-05-09 13:57:00,79.2,39.3,30.04,NNW,329,4.0,6.0,24,0.00,,,0.00,Wunderground v.1.15,2013-05-09 20:57:00,
2013-05-09 14:02:00,80.1,41.1,30.04,NW,322,0.0,3.0,25,0.00,,,0.00,Wunderground v.1.15,2013-05-09 21:02:00,
2013-05-09 14:07:00,80.9,39.6,30.03,NE,47,2.0,5.0,23,0.00,,,0.00,Wunderground v.1.15,2013-05-09 21:07:00,
2013-05-09 14:12:00,80.1,38.9,30.03,NNE,13,2.0,5.0,23,0.00,,,0.00,Wunderground v.1.15,2013-05-09 21:12:00,
2013-05-09 14:17:00,79.6,36.2,30.03,NNW,333,0.0,8.0,21,0.00,,,0.00,Wunderground v.1.15,2013-05-09 21:17:00,
2013-05-09 14:22:00,80.7,39.4,30.03,NNW,333,0.0,2.0,23,0.00,,,0.00,Wunderground v.1.15,2013-05-09 21:22:00,
2013-05-09 14:27:00,81.2,38.7,30.03,SSE,153,4.0,6.0,22,0.00,,,0.00,Wunderground v.1.15,2013-05-09 21:27:00,
2013-05-09 14:32:00,81.2,38.7,30.03,SSE,158,0.0,3.0,22,0.00,,,0.00,Wunderground v.1.15,2013-05-09 21:32:00,
2013-05-09 14:37:00,81.6,37.9,30.03,SSE,158,1.0,3.0,21,0.00,,,0.00,Wunderground v.1.15,2013-05-09 21:37:00,
2013-05-09 14:42:00,81.7,36.7,30.02,SW,215,3.0,7.0,20,0.00,,,0.00,Wunderground v.1.15,2013-05-09 21:42:00,
2013-05-09 14:47:00,81.3,39.9,30.02,West,261,2.0,7.0,23,0.00,,,0.00,Wunderground v.1.15,2013-05-09 21:47:00,
2013-05-09 14:53:00,81.8,38.0,30.02,WNW,299,3.0,5.0,21,0.00,,,0.00,Wunderground v.1.15,2013-05-09 21:53:00,
2013-05-09 14:59:00,81.8,35.5,30.02,North,350,2.0,9.0,19,0.00,,,0.00,Wunderground v.1.15,2013-05-09 21:59:00,
2013-05-09 15:04:00,81.1,36.2,30.02,NNE,19,0.0,5.0,20,0.00,,,0.00,Wunderground v.1.15,2013-05-09 22:04:00,
2013-05-09 15:09:00,81.3,36.4,30.01,SSE,162,3.0,8.0,20,0.00,,,0.00,Wunderground v.1.15,2013-05-09 22:09:00,
2013-05-09 15:14:00,81.4,36.5,30.01,ESE,104,4.0,11.0,20,0.00,,,0.00,Wunderground v.1.15,2013-05-09 22:14:00,
2013-05-09 15:19:00,81.0,37.4,30.01,East,85,1.0,11.0,21,0.00,,,0.00,Wunderground v.1.15,2013-05-09 22:19:00,
2013-05-09 15:24:00,81.1,37.5,30.01,ENE,63,1.0,8.0,21,0.00,,,0.00,Wunderground v.1.15,2013-05-09 22:24:00,
2013-05-09 15:29:00,81.3,37.6,30.01,ENE,63,1.0,8.0,21,0.00,,,0.00,Wunderground v.1.15,2013-05-09 22:29:00,
2013-05-09 15:34:00,82.3,39.6,30.01,WNW,282,6.0,6.0,22,0.00,,,0.00,Wunderground v.1.15,2013-05-09 22:34:00,
2013-05-09 15:39:00,83.4,41.7,30.01,West,265,4.0,8.0,23,0.00,,,0.00,Wunderground v.1.15,2013-05-09 22:39:00,
2013-05-09 15:44:00,83.0,37.8,30.00,WSW,257,1.0,10.0,20,0.00,,,0.00,Wunderground v.1.15,2013-05-09 22:44:00,
2013-05-09 15:49:00,82.8,37.6,30.00,WNW,287,4.0,10.0,20,0.00,,,0.00,Wunderground v.1.15,2013-05-09 22:49:00,
2013-05-09 15:54:00,83.1,39.1,30.00,West,261,1.0,5.0,21,0.00,,,0.00,Wunderground v.1.15,2013-05-09 22:54:00,
2013-05-09 15:59:00,83.7,39.6,30.00,WSW,238,10.0,10.0,21,0.00,,,0.00,Wunderground v.1.15,2013-05-09 22:59:00,
2013-05-09 16:04:00,82.9,37.7,30.00,WSW,248,10.0,11.0,20,0.00,,,0.00,Wunderground v.1.15,2013-05-09 23:04:00,
2013-05-09 16:09:00,82.8,37.6,30.00,WSW,257,7.0,14.0,20,0.00,,,0.00,Wunderground v.1.15,2013-05-09 23:09:00,
2013-05-09 16:15:00,82.8,38.9,30.00,West,275,3.0,11.0,21,0.00,,,0.00,Wunderground v.1.15,2013-05-09 23:15:00,
2013-05-09 16:20:00,82.9,40.1,30.00,West,271,3.0,5.0,22,0.00,,,0.00,Wunderground v.1.15,2013-05-09 23:20:00,
2013-05-09 16:25:00,82.9,40.1,30.00,NW,308,1.0,8.0,22,0.00,,,0.00,Wunderground v.1.15,2013-05-09 23:25:00,
2013-05-09 16:30:00,83.3,38.0,29.99,NW,311,3.0,4.0,20,0.00,,,0.00,Wunderground v.1.15,2013-05-09 23:30:00,
2013-05-09 16:35:00,82.7,37.5,29.99,NW,309,4.0,11.0,20,0.00,,,0.00,Wunderground v.1.15,2013-05-09 23:35:00,
2013-05-09 16:40:00,82.7,40.0,29.99,WNW,284,2.0,4.0,22,0.00,,,0.00,Wunderground v.1.15,2013-05-09 23:40:00,
2013-05-09 16:45:00,82.9,38.9,29.99,NNW,335,6.0,7.0,21,0.00,,,0.00,Wunderground v.1.15,2013-05-09 23:45:00,
2013-05-09 16:50:00,82.6,39.9,29.99,West,262,2.0,4.0,22,0.00,,,0.00,Wunderground v.1.15,2013-05-09 23:50:00,
2013-05-09 16:55:00,83.0,37.8,29.99,West,266,6.0,8.0,20,0.00,,,0.00,Wunderground v.1.15,2013-05-09 23:55:00,
2013-05-09 17:00:00,83.0,37.8,29.99,NW,304,0.0,4.0,20,0.00,,,0.00,Wunderground v.1.15,2013-05-10 00:00:00,
2013-05-09 17:05:00,82.9,38.9,29.99,WNW,285,2.0,6.0,21,0.00,,,0.00,Wunderground v.1.15,2013-05-10 00:05:00,
2013-05-09 17:10:00,83.2,39.2,29.98,WSW,258,6.0,6.0,21,0.00,,,0.00,Wunderground v.1.15,2013-05-10 00:10:00,
2013-05-09 17:15:00,83.1,37.9,29.98,SW,232,3.0,8.0,20,0.00,,,0.00,Wunderground v.1.15,2013-05-10 00:15:00,
2013-05-09 17:20:00,82.8,38.9,29.98,SW,227,10.0,10.0,21,0.00,,,0.00,Wunderground v.1.15,2013-05-10 00:20:00,
2013-05-09 17:25:00,82.6,38.7,29.98,WSW,245,4.0,12.0,21,0.00,,,0.00,Wunderground v.1.15,2013-05-10 00:25:00,
2013-05-09 17:30:00,82.6,37.5,29.98,West,261,8.0,9.0,20,0.00,,,0.00,Wunderground v.1.15,2013-05-10 00:30:00,
2013-05-09 17:35:00,82.9,37.7,29.98,WSW,258,5.0,9.0,20,0.00,,,0.00,Wunderground v.1.15,2013-05-10 00:35:00,
2013-05-09 17:40:00,83.0,37.8,29.98,WSW,254,0.0,5.0,20,0.00,,,0.00,Wunderground v.1.15,2013-05-10 00:40:00,
2013-05-09 17:45:00,83.3,39.3,29.98,SW,234,8.0,8.0,21,0.00,,,0.00,Wunderground v.1.15,2013-05-10 00:45:00,
2013-05-09 17:51:00,82.8,38.9,29.98,SW,234,6.0,8.0,21,0.00,,,0.00,Wunderground v.1.15,2013-05-10 00:51:00,
2013-05-09 17:56:00,82.8,37.6,29.98,WSW,257,1.0,8.0,20,0.00,,,0.00,Wunderground v.1.15,2013-05-10 00:56:00,
2013-05-09 18:01:00,82.5,37.4,29.97,SSW,211,4.0,7.0,20,0.00,,,0.00,Wunderground v.1.15,2013-05-10 01:01:00,
2013-05-09 18:06:00,82.1,38.3,29.98,SSW,195,6.0,9.0,21,0.00,,,0.00,Wunderground v.1.15,2013-05-10 01:06:00,
2013-05-09 18:11:00,82.0,38.2,29.97,SW,232,8.0,9.0,21,0.00,,,0.00,Wunderground v.1.15,2013-05-10 01:11:00,
2013-05-09 18:16:00,82.2,39.6,29.97,SSW,213,5.0,9.0,22,0.00,,,0.00,Wunderground v.1.15,2013-05-10 01:16:00,
2013-05-09 18:21:00,82.0,39.4,29.97,SSW,213,11.0,14.0,22,0.00,,,0.00,Wunderground v.1.15,2013-05-10 01:21:00,
2013-05-09 18:26:00,81.8,39.2,29.97,SW,236,8.0,14.0,22,0.00,,,0.00,Wunderground v.1.15,2013-05-10 01:26:00,
2013-05-09 18:31:00,81.8,38.0,29.97,WSW,238,5.0,8.0,21,0.00,,,0.00,Wunderground v.1.15,2013-05-10 01:31:00,
2013-05-09 18:36:00,81.9,39.3,29.97,SW,229,6.0,10.0,22,0.00,,,0.00,Wunderground v.1.15,2013-05-10 01:36:00,
2013-05-09 18:41:00,81.6,40.2,29.97,WSW,241,6.0,7.0,23,0.00,,,0.00,Wunderground v.1.15,2013-05-10 01:41:00,
2013-05-09 18:46:00,81.5,41.2,29.97,WSW,249,6.0,10.0,24,0.00,,,0.00,Wunderground v.1.15,2013-05-10 01:46:00,
2013-05-09 18:51:00,81.6,40.2,29.97,WSW,246,4.0,9.0,23,0.00,,,0.00,Wunderground v.1.15,2013-05-10 01:51:00,
2013-05-09 18:56:00,81.3,39.9,29.97,SW,217,8.0,10.0,23,0.00,,,0.00,Wunderground v.1.15,2013-05-10 01:56:00,
2013-05-09 19:01:00,81.1,40.9,29.97,SSW,212,5.0,8.0,24,0.00,,,0.00,Wunderground v.1.15,2013-05-10 02:01:00,
2013-05-09 19:06:00,80.9,40.7,29.97,SW,225,7.0,11.0,24,0.00,,,0.00,Wunderground v.1.15,2013-05-10 02:06:00,
2013-05-09 19:12:00,80.8,41.7,29.97,SW,224,6.0,7.0,25,0.00,,,0.00,Wunderground v.1.15,2013-05-10 02:12:00,
2013-05-09 19:17:00,80.7,41.6,29.97,SW,226,9.0,9.0,25,0.00,,,0.00,Wunderground v.1.15,2013-05-10 02:17:00,
2013-05-09 19:22:00,80.6,41.5,29.97,SSW,207,6.0,8.0,25,0.00,,,0.00,Wunderground v.1.15,2013-05-10 02:22:00,
2013-05-09 19:27:00,80.1,42.1,29.97,SSW,208,6.0,8.0,26,0.00,,,0.00,Wunderground v.1.15,2013-05-10 02:27:00,
2013-05-09 19:32:00,79.8,40.8,29.98,SSW,208,6.0,10.0,25,0.00,,,0.00,Wunderground v.1.15,2013-05-10 02:32:00,
2013-05-09 19:37:00,79.5,40.6,29.98,SW,217,7.0,10.0,25,0.00,,,0.00,Wunderground v.1.15,2013-05-10 02:37:00,
2013-05-09 19:43:00,79.2,41.3,29.97,SSW,205,8.0,10.0,26,0.00,,,0.00,Wunderground v.1.15,2013-05-10 02:43:00,
2013-05-09 19:49:00,78.7,40.9,29.98,SSW,213,6.0,10.0,26,0.00,,,0.00,Wunderground v.1.15,2013-05-10 02:49:00,
2013-05-09 19:54:00,78.3,40.6,29.98,SW,215,6.0,9.0,26,0.00,,,0.00,Wunderground v.1.15,2013-05-10 02:54:00,
2013-05-09 19:59:00,78.0,40.3,29.98,SW,217,6.0,9.0,26,0.00,,,0.00,Wunderground v.1.15,2013-05-10 02:59:00,
2013-05-09 20:04:00,77.7,40.1,29.98,SW,214,7.0,8.0,26,0.00,,,0.00,Wunderground v.1.15,2013-05-10 03:04:00,
2013-05-09 20:09:00,77.5,39.9,29.97,SW,221,8.0,10.0,26,0.00,,,0.00,Wunderground v.1.15,2013-05-10 03:09:00,
2013-05-09 20:14:00,77.3,39.7,29.98,SSW,207,4.0,9.0,26,0.00,,,0.00,Wunderground v.1.15,2013-05-10 03:14:00,
2013-05-09 20:19:00,76.9,39.4,29.98,SW,222,5.0,9.0,26,0.00,,,0.00,Wunderground v.1.15,2013-05-10 03:19:00,
2013-05-09 20:24:00,76.5,39.0,29.98,SW,224,6.0,7.0,26,0.00,,,0.00,Wunderground v.1.15,2013-05-10 03:24:00,
2013-05-09 20:30:00,76.2,39.8,29.98,SW,225,6.0,6.0,27,0.00,,,0.00,Wunderground v.1.15,2013-05-10 03:30:00,
2013-05-09 20:38:00,76.1,38.7,29.98,SW,227,8.0,8.0,26,0.00,,,0.00,Wunderground v.1.15,2013-05-10 03:38:00,
2013-05-09 20:43:00,75.9,39.5,29.98,SW,221,5.0,9.0,27,0.00,,,0.00,Wunderground v.1.15,2013-05-10 03:43:00,
2013-05-09 20:48:00,75.7,40.3,29.98,SW,227,4.0,6.0,28,0.00,,,0.00,Wunderground v.1.15,2013-05-10 03:48:00,
2013-05-09 20:53:00,75.5,40.1,29.99,SW,229,5.0,7.0,28,0.00,,,0.00,Wunderground v.1.15,2013-05-10 03:53:00,
2013-05-09 20:58:00,75.4,40.0,29.99,SW,229,4.0,5.0,28,0.00,,,0.00,Wunderground v.1.15,2013-05-10 03:58:00,
2013-05-09 21:01:00,75.3,39.9,29.99,SW,232,6.0,6.0,28,0.00,,,0.00,Wunderground v.1.15,2013-05-10 04:01:00,
2013-05-09 21:02:00,75.3,39.9,29.99,SW,232,4.0,6.0,28,0.00,,,0.00,Wunderground v.1.15,2013-05-10 04:02:00,
2013-05-09 21:07:00,75.3,39.9,29.99,SW,226,6.0,7.0,28,0.00,,,0.00,Wunderground v.1.15,2013-05-10 04:07:00,
2013-05-09 21:12:00,75.1,40.7,29.99,SW,221,5.0,7.0,29,0.00,,,0.00,Wunderground v.1.15,2013-05-10 04:12:00,
2013-05-09 21:17:00,74.8,40.4,29.99,SW,221,5.0,7.0,29,0.00,,,0.00,Wunderground v.1.15,2013-05-10 04:17:00,
2013-05-09 21:22:00,74.6,40.2,30.00,SW,221,3.0,5.0,29,0.00,,,0.00,Wunderground v.1.15,2013-05-10 04:22:00,
2013-05-09 21:27:00,74.3,40.8,30.00,SW,221,4.0,5.0,30,0.00,,,0.00,Wunderground v.1.15,2013-05-10 04:27:00,
2013-05-09 21:32:00,74.1,40.7,30.00,SW,221,4.0,4.0,30,0.00,,,0.00,Wunderground v.1.15,2013-05-10 04:32:00,
2013-05-09 21:37:00,74.0,40.6,30.00,SW,221,3.0,5.0,30,0.00,,,0.00,Wunderground v.1.15,2013-05-10 04:37:00,
2013-05-09 21:42:00,73.9,41.3,30.00,SW,221,5.0,5.0,31,0.00,,,0.00,Wunderground v.1.15,2013-05-10 04:42:00,
2013-05-09 21:47:00,74.3,40.8,30.00,SW,221,4.0,5.0,30,0.00,,,0.00,Wunderground v.1.15,2013-05-10 04:47:00,
2013-05-09 21:52:00,74.5,41.0,30.00,SW,221,4.0,5.0,30,0.00,,,0.00,Wunderground v.1.15,2013-05-10 04:52:00,
2013-05-09 21:58:00,74.4,40.9,30.00,SW,221,3.0,5.0,30,0.00,,,0.00,Wunderground v.1.15,2013-05-10 04:58:00,
2013-05-09 22:04:00,74.4,40.9,30.00,SW,221,5.0,5.0,30,0.00,,,0.00,Wunderground v.1.15,2013-05-10 05:04:00,
2013-05-09 22:09:00,74.4,40.9,30.00,SW,225,4.0,6.0,30,0.00,,,0.00,Wunderground v.1.15,2013-05-10 05:09:00,
2013-05-09 22:14:00,74.2,40.8,30.00,SW,226,4.0,6.0,30,0.00,,,0.00,Wunderground v.1.15,2013-05-10 05:14:00,
2013-05-09 22:19:00,73.8,40.4,30.00,SW,226,3.0,6.0,30,0.00,,,0.00,Wunderground v.1.15,2013-05-10 05:19:00,
2013-05-09 22:24:00,73.5,40.2,30.01,SW,226,4.0,5.0,30,0.00,,,0.00,Wunderground v.1.15,2013-05-10 05:24:00,
2013-05-09 22:29:00,73.5,40.2,30.01,SW,226,4.0,5.0,30,0.00,,,0.00,Wunderground v.1.15,2013-05-10 05:29:00,
2013-05-09 22:34:00,73.5,40.2,30.01,SW,226,5.0,6.0,30,0.00,,,0.00,Wunderground v.1.15,2013-05-10 05:34:00,
2013-05-09 22:39:00,73.7,40.3,30.01,SW,226,4.0,6.0,30,0.00,,,0.00,Wunderground v.1.15,2013-05-10 05:39:00,
2013-05-09 22:44:00,73.6,40.2,30.01,SW,226,4.0,5.0,30,0.00,,,0.00,Wunderground v.1.15,2013-05-10 05:44:00,
2013-05-09 22:49:00,73.3,40.8,30.01,SW,226,4.0,5.0,31,0.00,,,0.00,Wunderground v.1.15,2013-05-10 05:49:00,
2013-05-09 22:54:00,72.9,40.5,30.01,SW,226,4.0,6.0,31,0.00,,,0.00,Wunderground v.1.15,2013-05-10 05:54:00,
2013-05-09 22:59:00,72.6,40.2,30.01,SW,226,3.0,6.0,31,0.00,,,0.00,Wunderground v.1.15,2013-05-10 05:59:00,
2013-05-09 23:04:00,71.8,40.3,30.01,SW,216,5.0,6.0,32,0.00,,,0.00,Wunderground v.1.15,2013-05-10 06:04:00,
2013-05-09 23:09:00,71.2,40.6,30.01,SSW,200,7.0,7.0,33,0.00,,,0.00,Wunderground v.1.15,2013-05-10 06:09:00,
2013-05-09 23:14:00,70.4,40.7,30.01,SSW,201,5.0,6.0,34,0.00,,,0.00,Wunderground v.1.15,2013-05-10 06:14:00,
2013-05-09 23:19:00,70.0,41.1,30.01,SSW,201,5.0,7.0,35,0.00,,,0.00,Wunderground v.1.15,2013-05-10 06:19:00,
2013-05-09 23:24:00,69.8,40.9,30.02,SSW,201,5.0,7.0,35,0.00,,,0.00,Wunderground v.1.15,2013-05-10 06:24:00,
2013-05-09 23:29:00,69.5,40.6,30.02,SSW,201,5.0,7.0,35,0.00,,,0.00,Wunderground v.1.15,2013-05-10 06:29:00,
2013-05-09 23:34:00,69.5,40.6,30.02,SSW,201,6.0,6.0,35,0.00,,,0.00,Wunderground v.1.15,2013-05-10 06:34:00,
2013-05-09 23:39:00,69.3,40.5,30.02,SSW,201,5.0,6.0,35,0.00,,,0.00,Wunderground v.1.15,2013-05-10 06:39:00,
2013-05-09 23:44:00,69.0,40.9,30.02,SSW,201,5.0,7.0,36,0.00,,,0.00,Wunderground v.1.15,2013-05-10 06:44:00,
2013-05-09 23:50:00,68.8,40.7,30.02,SSW,201,6.0,7.0,36,0.00,,,0.00,Wunderground v.1.15,2013-05-10 06:50:00,
2013-05-09 23:55:00,68.4,41.1,30.02,SSW,201,4.0,7.0,37,0.00,,,0.00,Wunderground v.1.15,2013-05-10 06:55:00,